Theta_e
296 294 292 291 290 291 289 291 289 290 292 293 293 293 292 292 292 294 294 294 295 296 298 301 303 306 312 318 323 323 323 323
295 292 290 289 288 289 287 288 287 287 289 289 290 289 289 289 289 290 291 291 292 293 294 296 297 299 302 305 310 314 321 322
292 291 289 288 287 287 285 285 284 285 286 287 288 286 286 287 287 287 288 288 289 290 291 293 294 295 297 300 304 307 309 312
290 290 288 286 285 285 283 283 283 283 284 285 284 284 284 284 285 285 285 286 287 288 289 290 292 293 295 297 296 297 298 300
290 288 286 284 283 283 282 281 281 282 282 282 282 281 282 282 282 283 283 284 285 286 287 288 290 291 293 292 293 293 295 296
289 287 284 283 282 281 280 280 280 280 280 280 280 280 280 280 281 281 281 282 283 284 285 286 288 289 289 289 290 291 292 293
287 284 283 281 281 279 279 279 279 279 279 279 278 278 279 279 279 279 280 280 281 282 283 284 285 286 287 288 289 290 291 292
286 283 281 280 278 278 278 278 278 278 278 277 277 277 277 278 278 278 279 280 281 282 283 283 285 285 286 286 287 288 289 290
282 280 279 278 277 277 277 277 277 277 277 276 276 276 277 277 278 278 278 280 281 281 281 282 283 283 283 284 285 286 287 288
280 279 277 276 276 277 276 276 276 276 275 275 275 275 276 277 277 277 278 279 279 280 280 280 281 281 281 282 282 283 283 282
278 277 276 275 275 276 275 275 275 274 273 273 273 274 275 276 276 276 277 278 278 278 279 279 279 279 279 280 280 280 280 281
277 276 274 274 274 275 274 273 272 271 271 272 272 273 274 274 275 276 276 277 277 278 278 278 278 277 278 279 279 279 279 279
275 274 273 273 273 273 272 270 269 269 269 270 271 272 272 273 274 274 275 276 276 277 277 277 276 276 276 277 278 278 278 278
274 273 271 270 270 271 268 268 267 268 268 269 269 270 270 271 272 273 273 274 275 275 276 275 275 275 275 276 276 276 276 276
272 271 270 268 267 267 266 266 267 267 267 268 268 268 269 270 270 271 271 272 273 273 273 273 273 273 273 274 274 274 274 274
271 270 268 267 266 266 265 265 265 265 266 267 267 267 268 268 268 269 269 270 271 271 271 271 271 271 272 272 272 272 272 271
269 267 266 265 265 265 265 264 264 264 265 265 265 266 266 266 267 267 267 268 269 269 269 269 269 269 270 270 270 269 268 267
267 266 265 264 264 264 264 264 263 263 263 263 264 264 264 265 265 265 265 265 266 266 266 267 266 268 268 268 268 265 265 264
266 265 264 263 263 263 263 263 263 262 262 262 262 262 262 263 263 263 263 263 263 263 263 264 264 266 265 265 263 262 262 262
265 264 263 263 263 263 263 263 262 261 260 260 260 260 260 261 262 262 261 262 261 261 261 261 262 264 262 262 260 260 260 260
Wind_Speed
5 5 5 7 8 9 12 12 14 14 14 13 14 14 14 14 16 16 16 16 18 18 18 19 19 20 22 21 27 29 31 33
6 4 4 5 8 8 12 12 13 14 13 13 13 14 15 14 15 16 16 17 17 18 18 18 21 21 19 23 22 25 29 31
6 4 2 4 7 8 11 12 13 14 14 14 15 16 16 16 17 17 18 17 17 18 17 19 19 21 21 23 27 19 23 29
7 5 3 3 6 6 9 11 12 13 13 13 15 16 17 17 18 18 18 18 18 18 21 20 20 20 22 20 28 30 27 27
7 5 2 2 4 6 8 10 11 11 12 13 15 17 17 18 19 20 21 21 22 21 19 20 21 21 20 25 27 29 31 30
8 6 3 1 3 5 6 8 10 10 12 14 16 16 17 19 20 21 21 20 21 21 20 20 20 17 25 27 29 31 34 33
8 6 3 1 2 5 6 8 9 10 12 14 15 16 18 19 20 20 20 20 20 20 20 21 20 22 26 28 30 30 30 31
10 8 5 2 1 2 4 6 8 10 12 14 15 16 16 17 18 19 19 19 19 18 20 20 21 24 28 30 31 30 31 33
12 9 6 3 1 1 3 5 7 9 11 13 14 15 16 17 17 18 18 19 20 20 21 21 21 24 28 32 28 29 31 32
12 10 8 5 3 3 4 5 7 9 10 11 12 13 14 16 18 18 18 18 19 19 20 21 22 25 29 32 31 31 34 34
14 11 8 4 4 5 4 4 6 7 8 9 10 12 13 15 16 16 16 16 18 19 19 20 22 25 28 29 31 34 36 35
16 13 9 6 6 6 4 4 6 8 9 10 11 12 12 14 14 16 16 17 17 18 19 18 21 22 25 28 31 31 35 35
15 13 10 6 6 6 4 4 6 9 10 11 11 11 13 14 15 16 17 17 18 20 20 19 22 21 24 29 30 33 32 35
13 13 9 7 6 5 3 6 8 9 11 11 12 12 12 14 15 16 16 17 19 21 21 23 24 23 25 31 32 32 34 32
13 11 8 5 5 4 4 7 10 11 10 10 11 13 12 12 12 14 15 16 20 21 22 24 24 25 29 34 33 33 34 35
12 11 8 5 3 4 6 8 10 10 9 10 10 11 13 12 12 14 13 15 20 19 22 24 24 28 33 35 34 35 33 36
10 9 6 4 2 3 6 8 10 9 9 10 12 12 12 13 15 11 12 15 15 17 19 23 22 29 31 31 32 31 30 27
8 7 5 3 1 3 6 7 9 10 9 10 10 11 12 13 15 18 17 14 14 16 19 19 25 26 30 31 31 25 26 21
8 7 4 1 1 4 6 6 8 9 8 7 9 11 12 13 14 15 16 18 18 16 18 19 24 24 28 28 26 24 23 22
7 6 4 2 3 5 6 7 8 9 7 10 9 9 12 12 13 14 15 16 18 18 17 19 21 22 23 23 19 21 22 23
Wind_Direction
115 87 61 43 33 29 23 19 10 10 12 9 9 8 5 3 1 356 351 352 349 348 349 341 336 332 312 313 283 270 265 259
147 114 72 50 35 31 18 14 10 10 7 5 4 1 357 356 355 349 345 348 350 349 344 345 339 334 334 323 304 317 294 269
154 151 93 43 31 29 12 10 6 3 2 2 360 358 358 356 352 348 348 347 345 348 346 342 341 335 336 333 326 324 319 316
168 167 122 45 28 24 12 7 4 2 360 1 359 358 356 353 350 350 349 349 349 351 351 346 340 334 343 334 330 326 318 315
175 164 128 62 31 23 12 7 3 1 2 1 359 356 353 350 351 353 354 355 353 352 347 343 341 346 337 336 327 322 317 315
179 175 161 84 36 18 12 4 2 6 6 2 357 355 354 354 353 352 352 351 349 349 349 348 345 344 338 335 327 320 319 317
177 172 166 95 24 9 7 5 6 8 6 360 358 356 356 352 350 348 347 347 346 347 345 343 343 340 337 331 326 322 318 317
175 173 166 146 33 20 12 8 11 9 4 1 357 354 353 350 349 347 344 343 342 342 342 343 343 342 339 337 329 324 320 317
168 165 160 150 107 84 41 29 20 11 4 358 354 349 349 350 349 347 344 343 342 343 346 345 344 345 341 339 333 328 325 321
160 156 151 149 139 122 73 41 26 10 2 354 348 343 346 347 344 345 343 343 343 345 345 346 345 346 344 343 336 331 325 322
152 147 145 136 132 124 88 52 21 358 347 343 345 339 340 343 340 337 338 337 340 340 343 345 343 345 348 346 338 330 326 320
150 145 139 135 137 124 97 50 356 344 343 340 343 338 336 336 337 337 338 336 341 341 342 342 343 342 344 344 338 331 326 322
142 135 124 121 129 116 84 6 352 347 344 348 344 341 338 338 338 338 340 339 339 338 338 338 340 338 339 339 336 334 329 323
140 131 123 114 108 114 27 355 345 348 352 345 342 343 343 340 338 337 340 338 336 336 335 335 336 333 335 335 334 334 332 324
142 139 124 109 90 66 16 358 350 350 347 344 341 340 341 341 340 339 338 336 334 334 334 331 331 335 336 336 334 334 332 329
147 143 129 115 81 29 3 359 356 345 340 340 338 339 339 339 334 334 331 331 328 330 333 332 330 333 332 333 334 334 330 329
139 132 128 122 101 7 360 2 355 346 343 340 339 336 334 329 325 322 324 327 328 330 332 328 323 328 332 333 334 334 338 340
139 142 150 144 147 358 355 356 353 344 336 331 333 329 327 330 328 324 326 329 331 332 332 332 328 330 334 336 335 338 345 349
162 173 179 174 351 342 340 342 340 341 335 327 324 326 325 321 316 317 321 324 326 329 332 330 332 330 335 336 336 343 348 345
178 194 211 265 312 320 326 330 334 338 333 326 318 317 316 315 315 315 314 317 319 324 328 328 332 326 330 339 344 336 334 333